ITEST LICJ-DABB

Flight info

Callsign ITEST
Flight time N/A
Altitude 9500
Route D007J
Aircraft PA34/L-VGD/A

Departure

Time N/A
Airport Falcone–Borsellino Airport (LICJ)

Arrival

Time 2026-04-21 15:27
Airport Annaba Rabah Bitat Airport (DABB)
Time Latitude Longitude Altitude Speed Heading
2026-04-21 15:26 36.81845 7.81260 14 ft 0 kts 232°
2026-04-21 15:28 36.81837 7.81237 14 ft 8 kts 330°
2026-04-21 15:28 36.81917 7.81164 14 ft 18 kts 322°
2026-04-21 15:28 36.82013 7.81072 13 ft 17 kts 320°
2026-04-21 15:29 36.82102 7.80984 11 ft 16 kts 321°
2026-04-21 15:29 36.82214 7.80932 8 ft 23 kts
2026-04-21 15:29 36.82514 7.80970 11 ft 63 kts
2026-04-21 15:29 36.83013 7.81015 137 ft 76 kts 359°
2026-04-21 15:30 36.83522 7.81337 127 ft 99 kts 60°
2026-04-21 15:30 36.83568 7.81506 106 ft 106 kts 73°
2026-04-21 15:32 36.83539 7.82126 30 ft 120 kts 92°
2026-04-21 15:32 36.83568 7.83013 363 ft 96 kts 72°
2026-04-21 15:32 36.83915 7.83828 222 ft 120 kts 55°
2026-04-21 15:33 36.84384 7.84766 46 ft 132 kts 57°
2026-04-21 15:33 36.84726 7.85469 803 ft 53 kts 53°
2026-04-21 15:33 36.85165 7.86054 141 ft 135 kts 40°
2026-04-21 15:33 36.85749 7.86529 843 ft 76 kts 20°
2026-04-21 15:34 36.86328 7.86509 927 ft 82 kts 13°
2026-04-21 15:34 36.86794 7.86953 730 ft 111 kts 41°
2026-04-21 15:34 36.87505 7.87744 383 ft 144 kts 41°
2026-04-21 15:34 36.88271 7.88570 259 ft 145 kts 40°
2026-04-21 15:35 36.89028 7.89381 303 ft 137 kts 40°
2026-04-21 15:35 36.89678 7.90105 638 ft 115 kts 43°
2026-04-21 15:35 36.90351 7.90540 813 ft 107 kts 36°
2026-04-21 15:35 36.90640 7.91353 975 ft 104 kts 77°
2026-04-21 15:36 36.90763 7.92209 1159 ft 100 kts 76°
2026-04-21 15:36 36.90901 7.93061 1324 ft 100 kts 77°
2026-04-21 15:36 36.91055 7.93906 1489 ft 101 kts 76°
2026-04-21 15:36 36.91209 7.94761 1663 ft 101 kts 76°
2026-04-21 15:37 36.91362 7.95619 1827 ft 101 kts 75°
2026-04-21 15:37 36.91510 7.96486 1998 ft 102 kts 76°
2026-04-21 15:37 36.91659 7.97358 2158 ft 103 kts 76°
2026-04-21 15:37 36.91799 7.98247 2331 ft 106 kts 76°
2026-04-21 15:38 36.91942 7.99162 2500 ft 107 kts 76°
2026-04-21 15:38 36.92087 8.00087 2677 ft 110 kts 77°
2026-04-21 15:38 36.92230 8.01016 2843 ft 111 kts 75°
2026-04-21 15:38 36.92383 8.01975 3013 ft 114 kts 75°
2026-04-21 15:39 36.92537 8.02950 3184 ft 114 kts 76°
2026-04-21 15:39 36.92695 8.03920 3350 ft 113 kts 75°
2026-04-21 15:39 36.92846 8.04880 3507 ft 112 kts 76°
2026-04-21 15:39 36.92998 8.05834 3679 ft 112 kts 76°
2026-04-21 15:40 36.93154 8.06792 3849 ft 113 kts 75°
2026-04-21 15:40 36.93310 8.07759 4017 ft 114 kts 76°
2026-04-21 15:40 36.93468 8.08725 4181 ft 113 kts 76°
2026-04-21 15:40 36.93632 8.09685 4352 ft 113 kts 75°
2026-04-21 15:41 36.93793 8.10656 4522 ft 114 kts 76°
2026-04-21 15:41 36.93953 8.11633 4693 ft 115 kts 75°
2026-04-21 15:41 36.94113 8.12611 4859 ft 115 kts 76°
2026-04-21 15:41 36.94277 8.13586 5024 ft 115 kts 75°
2026-04-21 15:42 36.94437 8.14562 5192 ft 115 kts 75°
2026-04-21 15:42 36.94598 8.15544 5361 ft 115 kts 75°
2026-04-21 15:42 36.94754 8.16536 5491 ft 120 kts 76°
2026-04-21 15:42 36.94931 8.17627 5509 ft 135 kts 76°
2026-04-21 15:43 36.95135 8.18824 5510 ft 146 kts 76°
2026-04-21 15:43 36.95356 8.20101 5510 ft 154 kts 76°
2026-04-21 15:43 36.95579 8.21412 5505 ft 158 kts 76°
2026-04-21 15:43 36.95810 8.22766 5504 ft 160 kts 76°
2026-04-21 15:44 36.96045 8.24132 5507 ft 161 kts 76°
2026-04-21 15:44 36.96280 8.25503 5507 ft 162 kts 76°
2026-04-21 15:44 36.96517 8.26881 5507 ft 162 kts 76°
2026-04-21 15:44 36.96755 8.28262 5507 ft 162 kts 76°
2026-04-21 15:45 36.96992 8.29643 5502 ft 163 kts 76°
2026-04-21 15:45 36.97230 8.31028 5502 ft 163 kts 76°
2026-04-21 15:45 36.97468 8.32410 5502 ft 162 kts 76°
2026-04-21 15:45 36.97704 8.33792 5503 ft 163 kts 76°
2026-04-21 15:46 36.97941 8.35177 5496 ft 163 kts 76°
2026-04-21 15:46 36.98175 8.36566 5496 ft 163 kts 76°
2026-04-21 15:46 36.98411 8.37954 5496 ft 163 kts 76°
2026-04-21 15:46 36.98648 8.39345 5496 ft 163 kts 76°
2026-04-21 15:47 36.98884 8.40734 5497 ft 163 kts 76°
2026-04-21 15:47 36.99120 8.42123 5496 ft 163 kts 76°
2026-04-21 15:47 36.99356 8.43513 5496 ft 163 kts 76°
2026-04-21 15:47 36.99588 8.44884 5497 ft 163 kts 76°
2026-04-21 15:48 36.99823 8.46273 5498 ft 163 kts 76°
2026-04-21 15:48 37.00058 8.47660 5498 ft 163 kts 76°
2026-04-21 15:48 37.00293 8.49045 5501 ft 163 kts 76°
2026-04-21 15:48 37.00529 8.50432 5497 ft 163 kts 76°
2026-04-21 15:49 37.00763 8.51821 5498 ft 163 kts 76°
2026-04-21 15:49 37.00997 8.53209 5501 ft 163 kts 76°
2026-04-21 15:49 37.01231 8.54595 5499 ft 163 kts 76°
2026-04-21 15:49 37.01464 8.55982 5500 ft 163 kts 76°
2026-04-21 15:50 37.01698 8.57370 5501 ft 163 kts 76°
2026-04-21 15:50 37.01930 8.58758 5501 ft 163 kts 76°
2026-04-21 15:50 37.02163 8.60145 5504 ft 163 kts 76°
2026-04-21 15:50 37.02398 8.61537 5502 ft 163 kts 76°
2026-04-21 15:51 37.02629 8.62906 5501 ft 163 kts 76°
2026-04-21 15:51 37.02860 8.64296 5500 ft 163 kts 76°
2026-04-21 15:51 37.03092 8.65685 5501 ft 163 kts 76°
2026-04-21 15:51 37.03327 8.67076 5502 ft 163 kts 76°
2026-04-21 15:52 37.03561 8.68465 5501 ft 163 kts 76°
2026-04-21 15:52 37.03794 8.69855 5502 ft 163 kts 76°
2026-04-21 15:52 37.04058 8.71228 5497 ft 161 kts 66°
2026-04-21 15:52 37.04664 8.72362 5485 ft 154 kts 30°
2026-04-21 15:53 37.05642 8.72666 5492 ft 143 kts 353°
2026-04-21 15:53 37.06639 8.72659 5495 ft 144 kts 353°
2026-04-21 15:53 37.07640 8.72648 5497 ft 144 kts 353°
2026-04-21 15:53 37.08648 8.72637 5499 ft 145 kts 353°
2026-04-21 15:54 37.09661 8.72623 5500 ft 144 kts 353°
2026-04-21 15:54 37.10645 8.72613 5497 ft 142 kts 353°
2026-04-21 15:54 37.11627 8.72605 5494 ft 141 kts 353°
2026-04-21 15:54 37.12603 8.72599 5491 ft 140 kts 353°
2026-04-21 15:55 37.13573 8.72593 5491 ft 139 kts 353°
2026-04-21 15:55 37.14541 8.72585 5489 ft 139 kts 353°
2026-04-21 15:55 37.15506 8.72578 5496 ft 139 kts 354°
2026-04-21 15:55 37.16472 8.72548 5492 ft 139 kts 353°
2026-04-21 15:56 37.17439 8.72506 5493 ft 139 kts 353°
2026-04-21 15:56 37.18410 8.72461 5492 ft 139 kts 353°
2026-04-21 15:56 37.19377 8.72418 5493 ft 140 kts 353°
2026-04-21 15:56 37.20356 8.72374 5494 ft 141 kts 353°
2026-04-21 15:57 37.21339 8.72330 5502 ft 142 kts 353°
2026-04-21 15:57 37.22328 8.72283 5498 ft 142 kts 353°
2026-04-21 15:57 37.23318 8.72236 5498 ft 142 kts 353°
2026-04-21 15:57 37.24292 8.72192 5498 ft 142 kts 353°
2026-04-21 15:58 37.25281 8.72151 5500 ft 142 kts 353°
2026-04-21 15:58 37.26272 8.72110 5497 ft 143 kts 353°
2026-04-21 15:58 37.27264 8.72066 5495 ft 143 kts 353°
2026-04-21 15:58 37.28259 8.72022 5494 ft 143 kts 353°
2026-04-21 15:59 37.29254 8.71976 5495 ft 143 kts 353°
2026-04-21 15:59 37.30252 8.71933 5493 ft 144 kts 353°
2026-04-21 15:59 37.31251 8.71887 5497 ft 143 kts 353°
2026-04-21 15:59 37.32249 8.71843 5494 ft 144 kts 353°
2026-04-21 16:00 37.33247 8.71796 5494 ft 143 kts 353°
2026-04-21 16:00 37.34246 8.71754 5494 ft 143 kts 353°
2026-04-21 16:00 37.35242 8.71714 5495 ft 143 kts 353°
2026-04-21 16:00 37.36233 8.71676 5495 ft 142 kts 353°
2026-04-21 16:01 37.37224 8.71632 5495 ft 142 kts 353°
2026-04-21 16:01 37.38213 8.71587 5494 ft 142 kts 353°
2026-04-21 16:01 37.39201 8.71544 5497 ft 142 kts 353°
2026-04-21 16:01 37.40186 8.71499 5497 ft 142 kts 353°
2026-04-21 16:02 37.41175 8.71443 5497 ft 142 kts 353°
2026-04-21 16:02 37.42168 8.71388 5497 ft 143 kts 353°
2026-04-21 16:02 37.43150 8.71334 5499 ft 143 kts 353°
2026-04-21 16:02 37.44142 8.71278 5498 ft 143 kts 353°
2026-04-21 16:03 37.45136 8.71221 5503 ft 143 kts 353°
2026-04-21 16:03 37.46132 8.71164 5501 ft 143 kts 353°
2026-04-21 16:03 37.47129 8.71107 5501 ft 143 kts 353°
2026-04-21 16:03 37.48126 8.71049 5501 ft 143 kts 353°
2026-04-21 16:04 37.49122 8.70990 5501 ft 143 kts 353°
2026-04-21 16:04 37.50116 8.70935 5501 ft 143 kts 353°
2026-04-21 16:04 37.51111 8.70883 5501 ft 143 kts 353°
2026-04-21 16:04 37.52103 8.70827 5501 ft 143 kts 353°
2026-04-21 16:05 37.53096 8.70768 5503 ft 143 kts 353°
2026-04-21 16:05 37.54090 8.70712 5503 ft 143 kts 353°
2026-04-21 16:05 37.55084 8.70658 5505 ft 143 kts 353°
2026-04-21 16:05 37.56081 8.70602 5503 ft 143 kts 353°
2026-04-21 16:06 37.57079 8.70547 5504 ft 144 kts 353°
2026-04-21 16:06 37.58064 8.70493 5504 ft 144 kts 353°
2026-04-21 16:06 37.59062 8.70439 5512 ft 143 kts 353°
2026-04-21 16:06 37.60073 8.70385 5507 ft 144 kts 353°
2026-04-21 16:07 37.61057 8.70331 5505 ft 144 kts 353°
2026-04-21 16:07 37.62058 8.70275 5505 ft 144 kts 353°
2026-04-21 16:07 37.63056 8.70222 5505 ft 143 kts 353°
2026-04-21 16:07 37.64050 8.70166 5508 ft 143 kts 353°
2026-04-21 16:08 37.66037 8.70031 5507 ft 143 kts 353°
2026-04-21 16:08 37.67030 8.69965 5507 ft 143 kts 353°
2026-04-21 16:08 37.68021 8.69900 5507 ft 143 kts 353°
2026-04-21 16:09 37.68677 8.69855 5506 ft 143 kts 353°
2026-04-21 16:09 37.70004 8.69763 5507 ft 143 kts 353°
2026-04-21 16:09 37.70661 8.69721 5507 ft 143 kts 353°
2026-04-21 16:09 37.71654 8.69655 5508 ft 143 kts 353°
2026-04-21 16:10 37.72988 8.69564 5513 ft 143 kts 353°
2026-04-21 16:10 37.73648 8.69519 5509 ft 143 kts 353°
2026-04-21 16:10 37.74645 8.69452 5509 ft 143 kts 353°
2026-04-21 16:10 37.75642 8.69388 5509 ft 143 kts 353°
2026-04-21 16:11 37.76637 8.69321 5514 ft 143 kts 353°
2026-04-21 16:11 37.77632 8.69253 5513 ft 143 kts 353°
2026-04-21 16:11 37.78626 8.69184 5510 ft 143 kts 353°
2026-04-21 16:11 37.79617 8.69116 5510 ft 143 kts 353°
2026-04-21 16:12 37.80611 8.69048 5513 ft 143 kts 353°
2026-04-21 16:12 37.81606 8.68975 5515 ft 143 kts 353°
2026-04-21 16:12 37.82600 8.68902 5513 ft 143 kts 353°
2026-04-21 16:12 37.83596 8.68830 5518 ft 143 kts 353°
2026-04-21 16:13 37.84582 8.68763 5517 ft 144 kts 353°
2026-04-21 16:13 37.85581 8.68695 5513 ft 144 kts 353°
2026-04-21 16:13 37.86581 8.68623 5514 ft 144 kts 353°
2026-04-21 16:13 37.87580 8.68547 5514 ft 143 kts 353°
2026-04-21 16:14 37.88573 8.68447 5515 ft 143 kts 353°
2026-04-21 16:14 37.89565 8.68349 5505 ft 143 kts 353°
2026-04-21 16:14 37.90555 8.68248 5505 ft 143 kts 353°
2026-04-21 16:14 37.91543 8.68150 5505 ft 142 kts 353°
2026-04-21 16:15 37.92531 8.68052 5510 ft 142 kts 353°
2026-04-21 16:15 37.93519 8.67955 5509 ft 142 kts 353°
2026-04-21 16:15 37.94506 8.67856 5507 ft 142 kts 353°
2026-04-21 16:15 37.95493 8.67759 5510 ft 142 kts 353°
2026-04-21 16:16 37.96482 8.67660 5506 ft 142 kts 353°
2026-04-21 16:16 37.97473 8.67561 5509 ft 143 kts 353°
2026-04-21 16:16 37.98451 8.67463 5509 ft 143 kts 353°
2026-04-21 16:16 37.99454 8.67363 5508 ft 143 kts 353°
2026-04-21 16:17 38.00430 8.67264 5511 ft 143 kts 353°
2026-04-21 16:17 38.01418 8.67164 5514 ft 143 kts 353°
2026-04-21 16:17 38.02410 8.67065 5514 ft 142 kts 353°
2026-04-21 16:17 38.03398 8.66967 5514 ft 142 kts 353°
2026-04-21 16:18 38.04386 8.66870 5507 ft 142 kts 353°
2026-04-21 16:18 38.05374 8.66772 5506 ft 143 kts 353°
2026-04-21 16:18 38.06364 8.66673 5510 ft 143 kts 353°
2026-04-21 16:18 38.07355 8.66574 5509 ft 143 kts 353°
2026-04-21 16:19 38.08346 8.66474 5511 ft 143 kts 353°
2026-04-21 16:19 38.09336 8.66375 5511 ft 143 kts 353°
2026-04-21 16:19 38.10327 8.66276 5510 ft 143 kts 353°
2026-04-21 16:19 38.11316 8.66176 5509 ft 142 kts 353°
2026-04-21 16:20 38.12304 8.66078 5507 ft 142 kts 353°
2026-04-21 16:20 38.13290 8.65981 5510 ft 142 kts 353°
2026-04-21 16:20 38.14265 8.65885 5510 ft 142 kts 353°
2026-04-21 16:20 38.15253 8.65779 5510 ft 142 kts 350°
2026-04-21 16:21 38.16221 8.65569 5508 ft 142 kts 352°
2026-04-21 16:21 38.17205 8.65694 5502 ft 144 kts 15°
2026-04-21 16:21 38.18146 8.66148 5505 ft 145 kts 19°
2026-04-21 16:21 38.19079 8.66638 5504 ft 145 kts 20°
2026-04-21 16:22 38.20009 8.67134 5506 ft 145 kts 20°
2026-04-21 16:22 38.20941 8.67633 5507 ft 145 kts 20°
2026-04-21 16:22 38.21873 8.68131 5508 ft 145 kts 20°
2026-04-21 16:22 38.22806 8.68630 5507 ft 145 kts 20°
2026-04-21 16:23 38.23739 8.69129 5506 ft 146 kts 20°
2026-04-21 16:23 38.24672 8.69628 5508 ft 146 kts 20°
2026-04-21 16:23 38.25605 8.70128 5507 ft 145 kts 20°
2026-04-21 16:23 38.26537 8.70627 5507 ft 145 kts 20°
2026-04-21 16:24 38.27471 8.71127 5507 ft 145 kts 20°
2026-04-21 16:24 38.28404 8.71627 5509 ft 146 kts 20°
2026-04-21 16:24 38.29339 8.72128 5509 ft 146 kts 20°
2026-04-21 16:24 38.30272 8.72627 5511 ft 145 kts 20°
2026-04-21 16:25 38.31204 8.73127 5510 ft 145 kts 20°
2026-04-21 16:25 38.32139 8.73629 5509 ft 145 kts 20°
2026-04-21 16:25 38.33058 8.74121 5516 ft 145 kts 20°
2026-04-21 16:25 38.33990 8.74622 5511 ft 145 kts 20°
2026-04-21 16:26 38.34920 8.75121 5511 ft 145 kts 20°
2026-04-21 16:26 38.35851 8.75621 5512 ft 145 kts 20°
2026-04-21 16:26 38.36781 8.76120 5511 ft 145 kts 20°
2026-04-21 16:26 38.37711 8.76620 5512 ft 145 kts 20°
2026-04-21 16:27 38.38643 8.77120 5513 ft 145 kts 20°
2026-04-21 16:27 38.39572 8.77620 5513 ft 145 kts 20°
2026-04-21 16:27 38.40502 8.78120 5513 ft 145 kts 20°
2026-04-21 16:27 38.41437 8.78622 5512 ft 146 kts 20°
2026-04-21 16:28 38.42372 8.79125 5511 ft 146 kts 20°
2026-04-21 16:28 38.43311 8.79631 5512 ft 146 kts 20°
2026-04-21 16:28 38.44245 8.80134 5510 ft 141 kts 20°
2026-04-21 16:28 38.45120 8.80606 5497 ft 133 kts 19°
2026-04-21 16:29 38.45942 8.81048 5488 ft 127 kts 19°
2026-04-21 16:29 38.46742 8.81478 5488 ft 123 kts 19°
2026-04-21 16:29 38.47514 8.81894 5488 ft 118 kts 19°
2026-04-21 16:29 38.48257 8.82294 5490 ft 114 kts 19°
2026-04-21 16:30 38.48977 8.82681 5495 ft 111 kts 19°
2026-04-21 16:30 38.49683 8.83061 5492 ft 109 kts 19°
2026-04-21 16:30 38.50378 8.83435 5493 ft 108 kts 19°
2026-04-21 16:30 38.51068 8.83807 5493 ft 107 kts 19°
2026-04-21 16:31 38.51752 8.84176 5490 ft 107 kts 19°
2026-04-21 16:31 38.52433 8.84543 5490 ft 106 kts 19°
2026-04-21 16:31 38.53111 8.84909 5490 ft 106 kts 19°
2026-04-21 16:31 38.53786 8.85273 5491 ft 105 kts 19°
2026-04-21 16:32 38.54462 8.85637 5487 ft 105 kts 19°
2026-04-21 16:32 38.55134 8.86000 5488 ft 105 kts 19°
2026-04-21 16:32 38.55806 8.86363 5489 ft 105 kts 18°
2026-04-21 16:32 38.56479 8.86727 5490 ft 105 kts 18°
2026-04-21 16:33 38.57150 8.87089 5492 ft 105 kts 18°
2026-04-21 16:33 38.57819 8.87451 5492 ft 104 kts 18°
2026-04-21 16:33 38.58487 8.87812 5492 ft 104 kts 18°
2026-04-21 16:33 38.59143 8.88167 5492 ft 104 kts 18°
2026-04-21 16:34 38.59807 8.88525 5488 ft 103 kts 18°
2026-04-21 16:34 38.60467 8.88883 5487 ft 103 kts 18°
2026-04-21 16:34 38.61124 8.89238 5489 ft 103 kts 18°
2026-04-21 16:34 38.61782 8.89593 5488 ft 103 kts 18°
2026-04-21 16:35 38.62442 8.89951 5492 ft 103 kts 18°
2026-04-21 16:35 38.63106 8.90310 5493 ft 103 kts 18°
2026-04-21 16:35 38.63770 8.90670 5493 ft 104 kts 18°
2026-04-21 16:35 38.64435 8.91030 5494 ft 104 kts 18°
2026-04-21 16:36 38.65099 8.91390 5494 ft 104 kts 18°
2026-04-21 16:36 38.65764 8.91750 5495 ft 104 kts 18°
2026-04-21 16:36 38.66419 8.92105 5495 ft 104 kts 19°
2026-04-21 16:36 38.67086 8.92466 5496 ft 104 kts 18°
2026-04-21 16:37 38.67753 8.92828 5494 ft 104 kts 18°
2026-04-21 16:37 38.68420 8.93190 5495 ft 104 kts 18°
2026-04-21 16:37 38.69089 8.93552 5496 ft 104 kts 18°
2026-04-21 16:37 38.69757 8.93915 5496 ft 104 kts 18°
2026-04-21 16:38 38.70424 8.94277 5495 ft 104 kts 18°
2026-04-21 16:38 38.71089 8.94638 5495 ft 104 kts 18°
2026-04-21 16:38 38.71756 8.94999 5494 ft 104 kts 18°
2026-04-21 16:38 38.72417 8.95358 5492 ft 103 kts 18°
2026-04-21 16:39 38.73078 8.95717 5491 ft 103 kts 18°
2026-04-21 16:39 38.73738 8.96075 5490 ft 103 kts 18°
2026-04-21 16:39 38.74398 8.96433 5489 ft 103 kts 18°
2026-04-21 16:39 38.75054 8.96790 5487 ft 102 kts 18°
2026-04-21 16:40 38.75702 8.97142 5487 ft 102 kts 18°
2026-04-21 16:40 38.76358 8.97499 5490 ft 102 kts 18°
2026-04-21 16:40 38.77012 8.97854 5489 ft 102 kts 18°
2026-04-21 16:40 38.77666 8.98210 5488 ft 102 kts 18°
2026-04-21 16:41 38.78110 8.98451 5490 ft 102 kts 18°
2026-04-21 16:41 38.78975 8.98922 5489 ft 102 kts 18°
2026-04-21 16:41 38.79624 8.99275 5490 ft 102 kts 18°
2026-04-21 16:41 38.80275 8.99629 5490 ft 102 kts 18°
2026-04-21 16:42 38.80926 8.99983 5489 ft 101 kts 18°
2026-04-21 16:42 38.81578 9.00338 5489 ft 102 kts 18°
2026-04-21 16:42 38.82230 9.00693 5489 ft 102 kts 18°
2026-04-21 16:42 38.82882 9.01049 5488 ft 102 kts 18°
2026-04-21 16:43 38.83535 9.01404 5489 ft 102 kts 18°
2026-04-21 16:43 38.84185 9.01758 5490 ft 102 kts 18°
2026-04-21 16:43 38.84827 9.02108 5490 ft 102 kts 18°
2026-04-21 16:43 38.85483 9.02465 5491 ft 103 kts 18°
2026-04-21 16:44 38.86142 9.02824 5494 ft 103 kts 18°
2026-04-21 16:44 38.86801 9.03184 5492 ft 103 kts 18°
2026-04-21 16:44 38.87460 9.03544 5493 ft 103 kts 18°
2026-04-21 16:44 38.88136 9.03910 5505 ft 109 kts 18°
2026-04-21 16:45 38.88864 9.04307 5503 ft 117 kts 18°
2026-04-21 16:45 38.89634 9.04728 5501 ft 123 kts 19°
2026-04-21 16:45 38.90437 9.05168 5503 ft 127 kts 19°
2026-04-21 16:45 38.91260 9.05619 5503 ft 129 kts 19°
2026-04-21 16:46 38.92091 9.06073 5502 ft 131 kts 19°
2026-04-21 16:46 38.92932 9.06533 5500 ft 132 kts 19°
2026-04-21 16:46 38.93778 9.06996 5501 ft 133 kts 19°
2026-04-21 16:46 38.94629 9.07461 5499 ft 133 kts 19°
2026-04-21 16:47 38.95480 9.07926 5498 ft 133 kts 19°
2026-04-21 16:47 38.96333 9.08393 5501 ft 133 kts 19°
2026-04-21 16:47 38.97184 9.08858 5501 ft 133 kts 19°
2026-04-21 16:47 38.98037 9.09325 5498 ft 134 kts 19°
2026-04-21 16:48 38.98900 9.09797 5413 ft 139 kts 19°
2026-04-21 16:48 38.99819 9.10299 5249 ft 146 kts 19°
2026-04-21 16:48 39.00766 9.10819 5092 ft 149 kts 19°
2026-04-21 16:48 39.01722 9.11345 4929 ft 148 kts 19°
2026-04-21 16:49 39.02643 9.11850 4763 ft 144 kts 19°
2026-04-21 16:49 39.03558 9.12351 4580 ft 142 kts 19°
2026-04-21 16:49 39.04464 9.12847 4408 ft 141 kts 19°
2026-04-21 16:49 39.05361 9.13339 4230 ft 140 kts 19°
2026-04-21 16:50 39.06252 9.13828 4054 ft 139 kts 19°
2026-04-21 16:50 39.07139 9.14314 3882 ft 138 kts 19°
2026-04-21 16:50 39.08024 9.14800 3714 ft 138 kts 19°
2026-04-21 16:50 39.08906 9.15284 3536 ft 138 kts 19°
2026-04-21 16:51 39.09788 9.15768 3368 ft 138 kts 19°
2026-04-21 16:51 39.10670 9.16253 3200 ft 137 kts 19°
2026-04-21 16:51 39.11549 9.16736 3025 ft 137 kts 19°
2026-04-21 16:51 39.12424 9.17216 2854 ft 136 kts 20°
2026-04-21 16:52 39.13303 9.17656 2680 ft 134 kts 10°
2026-04-21 16:52 39.14222 9.17632 2499 ft 132 kts 345°
2026-04-21 16:52 39.14767 9.17343 2496 ft 125 kts 329°
2026-04-21 16:52 39.15598 9.16418 2481 ft 115 kts 317°
2026-04-21 16:53 39.16167 9.15721 2482 ft 111 kts 317°
2026-04-21 16:53 39.16716 9.15045 2484 ft 108 kts 317°
2026-04-21 16:53 39.17257 9.14378 2472 ft 108 kts 317°
2026-04-21 16:53 39.17839 9.13663 2279 ft 118 kts 317°
2026-04-21 16:54 39.18433 9.12935 2053 ft 119 kts 317°
2026-04-21 16:54 39.19043 9.12192 1814 ft 121 kts 317°
2026-04-21 16:54 39.19656 9.11454 1540 ft 120 kts 318°
2026-04-21 16:54 39.20319 9.10804 1265 ft 120 kts 321°
2026-04-21 16:55 39.20975 9.10157 986 ft 117 kts 320°
2026-04-21 16:55 39.21583 9.09506 728 ft 113 kts 317°
2026-04-21 16:55 39.22151 9.08873 584 ft 104 kts 319°
2026-04-21 16:55 39.22684 9.08275 452 ft 99 kts 319°
2026-04-21 16:56 39.23191 9.07692 323 ft 95 kts 318°
2026-04-21 16:56 39.23669 9.07138 199 ft 89 kts 318°
2026-04-21 16:56 39.24119 9.06611 79 ft 88 kts 317°
2026-04-21 16:56 39.24546 9.06101 11 ft 71 kts 318°
2026-04-21 16:57 39.24792 9.05845 13 ft 37 kts 320°
2026-04-21 16:57 39.24968 9.05641 14 ft 32 kts 334°
2026-04-21 16:57 39.25116 9.05754 13 ft 26 kts 65°
2026-04-21 16:57 39.25233 9.05817 13 ft 22 kts 335°
2026-04-21 16:58 39.25328 9.05807 13 ft 0 kts 92°